Weather in Christchurch

United Kingdom     50°44′03″N   1°45′26″W
temp.,
°C
wind,
m/s
gust,
m/s
humid.,
%
clouds,
%
prec.,
mm/h
press.,
hPa
HPBL,
m
16 may, sun
sun1601:00+9wsw510935 1.0 1001349
04:00+9sw599191 0.3 999378
07:00+10sw5989100 0.4 999498
10:00+11wsw5886100 1.4 999728
13:00+12sw81085100 2.8 9981016
16:00+11sw10149280 1.8 996741
19:00+12wsw11158857 2.7 995751
22:00+10w7149171 0.4 998535
17 may, mon
mon1701:00+9w712936 0.5 1000387
04:00+8w5119316 0.1 1002308
07:00+9w48915 0.1 1004230
10:00+13w45778 0.0 1006564
13:00+15w566811 0.3 1007907
16:00+13wsw7982100 2.3 1008507
19:00+12wnw6985100 4.6 1008296
22:00+9wnw5119286 1.2 1010332
18 may, tue
tue1801:00+7wnw499148 1.2 1011218
04:00+7w489192 0.0 1012206
07:00+8w48905 0.0 1013251
10:00+12w56735 0.0 1014745
13:00+13sw787123 0.5 10151089
16:00+12wsw9107841 1.1 1015886
19:00+11wsw7108486 1.5 1015605
22:00+9wsw489089 0.1 1015241
19 may, wed
wed1901:00+9wnw4888100 0.1 1015267
04:00+8wnw3490100 0.0 1014111
07:00+8nw468985 0.0 1016205
10:00+12n56776 0.7 1017673
13:00+14nw566897 1.9 1019963
16:00+14nw797682 2.6 1020725
19:00+13nw711770 3.4 1022545
22:00+9nw611840 0.0 1025302
20 may, thu
thu2001:00+7nw59912 0.0 1026178
04:00+7nw349018 0.0 102684
07:00+8wsw2381100 0.0 1027120
10:00+12sw5674100 0.0 1027621
13:00+13sw7772100 0.0 1026872
16:00+12sw7876100 0.0 1024828
19:00+11sw6982100 0.0 1023563
22:00+10sw3990100 0.3 1021546